Regional Weather Roundup
Issued by NWS

Home | Current Version | Previous Version | Graphics & Text | Print | Product List | Glossary Off
Versions: 1 2 3 4 5 6 7 8 9 10 11 12 13 14 15 16 17 18 19 20 21 22 23 24 25 26 27 28 29 30 31 32 33 34 35 36 37 38 39 40 41 42 43 44 45 46 47 48 49 50

000
ASUS43 KLOT 301309
RWRIL

ILLINOIS REGIONAL WEATHER ROUNDUP
NATIONAL WEATHER SERVICE CHICAGO/ROMEOVILLE IL
800 AM CDT TUE MAY 30 2017

NOTE: "FAIR" INDICATES FEW OR NO CLOUDS BELOW 12,000 FEET WITH NO
SIGNIFICANT WEATHER AND/OR OBSTRUCTIONS TO VISIBILITY.

* THESE STATIONS ARE NOT UNDER NWS QUALITY CONTROL. THEY ALSO MAY NOT
  REPORT WEATHER SUCH AS PRECIPITATION OR FOG.

ILZ001-002-007-009-015-016-024-301400-
NORTHWEST ILLINOIS

CITY           SKY/WX    TMP DP  RH WIND       PRES   REMARKS
MOLINE         SUNNY     61  49  64 W10       30.01S
STERLING*      SUNNY     60  49  66 W9        30.01R
SAVANNA*       MOSUNNY   59  48  67 W5        29.99S
$$

ILZ003-004-008-010-011-017-018-301400-
NORTH CENTRAL ILLINOIS

CITY           SKY/WX    TMP DP  RH WIND       PRES   REMARKS
ROCKFORD       SUNNY     60  49  66 W14       29.98S
FREEPORT*      MOSUNNY   57  48  70 W10       29.99S
ROCHELLE*      SUNNY     58  48  69 W15       30.00R
DE KALB*       SUNNY     59  49  68 W14G22    29.98R
PERU*          SUNNY     60  47  64 W10G17    30.01R
$$

ILZ005-006-012>014-019>023-301400-
NORTHEAST ILLINOIS

CITY           SKY/WX    TMP DP  RH WIND       PRES   REMARKS
CHICAGO-OHARE  MOSUNNY   60  48  64 W8        29.95S
CHICAGO-MIDWAY MOSUNNY   62  49  62 W8        29.96R
AURORA         SUNNY     61  50  67 W17       29.98R
LANSING*       MOSUNNY   61  52  71 W8        29.98R
JOLIET*        SUNNY     63  50  61 W7        29.99R
WAUKEGAN       SUNNY     60  50  69 VRB6      29.93R
DUPAGE AIRPORT SUNNY     60  51  72 W12       29.96R
KANKAKEE*      MOSUNNY   65  48  55 W12       30.01R
WHEELING       SUNNY     61  50  67 W9        29.96S
MORRIS*        SUNNY     61  48  62 W14       29.98S
ROMEOVILLE*    SUNNY     62  52  71 W12       29.98S
NORTHERLY ISL    N/A     62  47  57 W9          N/A
$$

LMZ740>746-301400-
SOUTHERN LAKE MICHIGAN

STATION/POSITION SKY/WX   TEMP    WIND        PRES    VSBY  WAVE
                          AIR SEA DIR/SP/G                  HT/PER
                          (F)     (DEG/KT/KT) (MB)    (MI)  (FT/S)
WILMETTE HARBOR            56 54  250/  8/  8   N/A           1
HARRISON CRIB              60     270/ 12/ 13   N/A
BURNHAM HARBOR             62     290/  8/ 10   N/A
CALUMET HARBOR             62     250/  6/ 11 1014.2R
BURNS HARBOR               60     240/  9/ 11 1015.2R
MICHIGAN CITY              59     230/ 10/ 11   N/A
MICHIGAN CITY 6N           58 58  260/ 10/ 12   N/A           1/ 2
ST. JOSEPH                 57 59  270/ 10/ 14 1014.8          1/ 2
$$

ILZ025>027-034>036-040-047-049-050-058-095>099-301400-
WEST-CENTRAL ILLINOIS

CITY           SKY/WX    TMP DP  RH WIND       PRES   REMARKS
QUINCY         SUNNY     62  50  64 W3        30.06R
GALESBURG*     SUNNY     61  49  65 W8          N/A
MACOMB*        SUNNY     61  49  65 W6        30.07R
JACKSONVILLE*  SUNNY     62  49  60 W5        30.07R
PITTSFIELD*    SUNNY     63  50  63 W3        30.08S
$$

ILZ028>032-037-038-041>044-048-051>054-059>061-301400-
CENTRAL ILLINOIS

CITY           SKY/WX    TMP DP  RH WIND       PRES   REMARKS
PONTIAC        MOSUNNY   63  50  62 W16       30.02S
BLOOMINGTON    SUNNY     63  47  55 W16       30.04R
DECATUR        SUNNY     64  48  56 NW6       30.05R
PEORIA         SUNNY     63  48  58 W7        30.04R
LACON*         SUNNY     61  48  62 W6        30.02R
LINCOLN*       SUNNY     64  50  60 W5        30.04S
SPRINGFIELD    SUNNY     65  50  58 NW7       30.06R
TAYLORVILLE    MOSUNNY   64  49  57 NW8       30.06R
$$

ILZ033-039-045-046-055>057-062-063-301400-
EAST-CENTRAL ILLINOIS

CITY           SKY/WX    TMP DP  RH WIND       PRES   REMARKS
CHAMPAIGN      MOSUNNY   64  48  56 NW9       30.03R
RANTOUL*       SUNNY     66  50  55 NW10      30.02S
MATTOON        PTSUNNY   66  52  60 W6        30.03R
PARIS*         PTSUNNY   64  55  70 W7        30.04R
$$

ILZ079-100>102-301400-
SOUTHWEST ILLINOIS

CITY           SKY/WX    TMP DP  RH WIND       PRES   REMARKS
ALTON          MOSUNNY   64  54  68 W9        30.07R
BELLEVILLE     SUNNY     66  59  77 SW3       30.07R
CAHOKIA*       SUNNY     66  57  72 W3        30.07R
SPARTA*        SUNNY     65  58  79 W6        30.08R
$$

ILZ064>066-069>071-074>076-080>082-084>086-088>090-092>094-301400-
SOUTH-CENTRAL ILLINOIS

CITY           SKY/WX    TMP DP  RH WIND       PRES   REMARKS
CARBONDALE     MOSUNNY   67  63  87 N3        30.06R
CAIRO*         MOSUNNY   70  61  74 W6        30.07S
EFFINGHAM*     MOSUNNY   64  59  85 SW3       30.06S
MARION         MOSUNNY   66  64  94 W5        30.07R
MT. VERNON       N/A     64  61  90 CALM      30.06S
CENTRALIA*     SUNNY     66  59  76 CALM      30.06R
SALEM*         SUNNY     67  60  79 SW3       30.06R
METROPOLIS*    SUNNY     70  65  84 SW3       30.07R
$$

ILZ067-068-072-073-078-083-087-091-301400-
SOUTHEAST ILLINOIS

CITY           SKY/WX    TMP DP  RH WIND       PRES   REMARKS
LAWRENCEVILLE  SUNNY     67  57  70 W5        30.05R
FLORA*         SUNNY     69  59  69 NW6       30.06R
FAIRFIELD*     SUNNY     67  59  73 CALM      30.05R
HARRISBURG*    SUNNY     65  61  86 NW3       30.06R
ROBINSON*      SUNNY     68  55  64 SW3       30.05R
CARMI*         SUNNY     66  60  81 W6        30.05R
$$

ABBREVIATIONS USED IN REMARKS
   TC - TEMPERATURE IN CELSIUS
  WCI - WIND CHILL INDEX
   HX - HEAT INDEX
  VSB - VISIBILITY
$$





USA.gov is the U.S. government's official web portal to all federal, state and local government web resources and services.